Theta_e
308 309 311 312 312 312 313 313 313 313 314 313 310 310 310 313 318 318 324 324 324 326 323 327 331 330 332 327 333 337 344 348 346 345 342 339 343 343 343 342 340 336 340 340 331
309 310 311 312 313 313 313 313 314 314 314 314 311 311 311 314 319 327 323 325 324 322 323 326 325 325 329 331 336 341 341 344 342 341 340 341 341 344 345 344 343 342 340 330 327
309 310 312 313 313 314 314 313 314 315 315 314 312 311 312 318 333 329 327 325 322 322 321 326 325 333 336 335 337 339 338 336 340 338 338 340 342 341 343 346 343 343 334 328 327
309 310 312 313 314 314 314 313 314 316 316 317 313 311 313 322 337 327 324 322 322 322 323 324 327 336 335 335 336 335 336 337 338 338 339 340 341 344 343 343 341 338 330 327 327
309 311 312 313 314 314 314 314 314 316 316 315 312 311 315 331 328 328 321 321 323 321 321 322 333 336 336 338 339 337 337 336 336 339 340 343 344 345 345 343 339 335 330 327 327
309 311 312 314 314 315 314 314 314 316 314 314 312 312 326 326 328 325 322 322 323 324 324 324 324 336 338 342 340 340 337 338 336 339 342 345 344 344 345 343 342 335 330 328 328
309 311 313 314 315 315 315 314 315 316 316 316 314 314 325 325 327 325 326 326 324 325 324 330 336 337 336 334 337 340 339 339 338 341 343 342 346 348 345 344 343 338 332 330 330
310 311 313 314 315 315 315 315 317 319 316 316 315 320 326 327 326 326 326 326 326 325 325 329 336 336 338 335 338 344 343 349 340 342 342 336 348 348 345 345 344 340 334 332 331
310 312 313 314 315 315 315 316 319 321 318 317 319 324 328 325 326 327 326 326 327 327 328 329 337 337 335 333 338 342 350 349 347 341 341 341 345 347 344 344 343 341 339 334 333
310 312 313 314 315 315 315 318 322 320 324 320 324 325 325 324 326 328 327 327 327 327 327 328 333 339 337 333 339 343 347 345 347 342 341 341 344 346 345 345 343 342 342 336 334
310 312 313 314 315 315 316 319 319 325 323 323 324 325 327 328 327 326 327 328 326 326 327 326 330 333 336 336 337 338 337 342 341 338 334 338 349 348 345 344 344 343 342 340 338
311 312 313 314 315 316 317 321 320 320 320 321 322 323 326 328 327 327 327 327 327 326 327 327 328 332 333 338 338 333 335 334 335 336 333 340 345 347 344 343 340 343 343 342 337
311 312 313 314 315 319 320 321 320 322 320 324 323 323 324 326 326 328 326 326 326 326 327 328 328 330 331 333 334 334 334 335 342 339 340 340 340 350 344 341 339 339 342 339 339
311 313 313 314 318 318 321 320 320 321 325 329 323 321 323 325 325 326 328 327 327 326 326 327 328 329 332 335 335 335 335 336 336 343 344 343 341 350 346 344 342 339 339 337 340
311 313 313 313 316 319 322 322 320 323 338 324 320 323 323 324 326 329 329 328 326 327 328 328 328 330 332 336 335 334 336 336 338 342 342 345 342 350 346 345 342 339 338 338 340
312 312 313 314 315 317 320 321 322 327 337 323 321 324 322 322 324 328 328 327 327 327 327 327 328 330 331 332 332 335 339 342 340 342 346 343 343 350 347 346 343 340 339 339 338
312 312 313 313 315 317 320 322 328 331 329 325 321 323 322 323 324 327 327 327 326 328 328 328 329 329 334 334 333 334 336 340 340 350 351 343 346 343 339 335 333 341 339 337 337
312 313 314 313 314 316 320 324 334 334 333 325 325 322 321 323 323 325 327 327 327 327 327 328 332 336 335 334 333 336 337 338 341 344 340 341 346 341 336 335 336 334 337 335 332
312 314 319 320 322 323 321 330 333 333 329 330 327 324 323 324 324 324 326 329 327 326 328 329 332 335 335 333 334 337 336 337 341 338 339 339 345 338 338 340 340 334 334 335 333
310 315 318 320 324 322 324 329 332 329 327 330 332 328 325 324 324 324 325 328 329 330 328 330 339 336 336 335 334 335 335 341 340 340 342 341 342 338 339 342 338 337 334 335 334
311 321 323 323 322 323 326 328 328 325 326 331 331 332 335 333 326 326 330 329 329 329 329 333 335 338 335 335 336 336 342 342 343 339 344 346 339 337 336 336 335 334 335 335 333
316 327 326 322 322 324 324 327 320 326 327 327 329 332 335 336 336 331 335 335 334 331 335 336 335 337 337 335 334 336 339 339 344 342 340 341 339 340 337 336 338 336 337 336 335
323 325 326 323 322 323 328 328 324 326 328 329 331 333 334 334 334 335 335 333 332 341 340 340 344 343 335 335 336 336 334 336 341 343 340 342 340 339 340 339 339 334 335 332 333
321 329 328 327 325 326 327 332 324 323 326 327 330 334 334 336 333 332 336 332 336 339 331 340 339 341 341 337 333 333 336 338 339 341 340 339 339 344 343 338 337 333 331 330 334
321 329 330 329 325 324 327 331 331 327 325 327 332 334 334 337 341 334 339 333 336 334 334 337 339 340 336 334 334 335 336 335 340 340 338 335 341 342 343 338 337 332 331 334 334
321 331 327 330 332 331 325 328 330 330 328 328 331 332 335 335 340 342 342 344 345 336 335 339 340 341 341 337 337 335 334 333 334 335 334 336 340 338 338 337 338 335 337 333 333
319 323 329 332 331 331 329 329 328 329 329 327 329 336 341 343 340 337 334 337 339 342 341 349 343 348 346 341 338 337 336 336 335 334 337 338 340 339 340 338 336 335 335 334 334
Wind_Speed
20 21 22 24 25 26 27 29 28 25 22 18 16 16 17 18 7 4 4 4 5 4 4 9 15 22 19 6 7 5 4 2 4 5 4 11 9 4 14 14 7 6 5 11 22
19 22 23 24 26 27 29 31 29 30 22 14 14 15 15 16 6 9 8 6 4 1 2 8 10 14 3 6 2 6 5 12 17 10 13 14 15 15 13 15 11 8 10 21 23
19 21 23 25 27 28 30 32 28 31 21 15 13 13 13 11 3 3 14 8 4 2 6 11 19 2 6 6 3 1 5 7 5 9 15 11 13 11 14 13 13 13 13 16 20
19 21 23 25 27 30 31 32 28 29 19 15 12 11 11 4 2 2 10 7 4 3 6 10 6 6 6 5 7 9 10 9 9 17 11 10 13 11 10 7 11 12 15 18 13
19 21 22 24 27 30 32 31 27 24 19 12 11 10 5 1 7 5 10 9 3 4 5 7 4 3 7 8 8 8 10 10 9 15 12 14 10 10 9 13 12 16 16 11 12
19 21 22 24 27 30 33 29 25 22 16 12 9 10 3 3 1 6 11 8 4 6 9 13 6 13 5 3 5 4 7 9 4 7 10 14 12 8 8 11 12 13 11 9 13
18 20 22 24 27 30 34 30 26 22 13 12 7 7 3 9 2 4 9 5 5 10 9 15 31 17 4 7 6 9 8 8 5 7 7 14 9 10 11 13 13 13 13 11 16
18 20 21 24 27 31 34 31 28 16 9 9 5 2 6 4 4 7 7 12 13 9 15 3 27 12 6 4 5 7 7 6 7 6 2 5 3 15 13 13 10 13 13 12 11
17 19 21 24 27 31 34 31 27 9 8 8 2 2 8 4 7 9 10 14 13 12 12 9 5 1 7 3 5 6 3 6 11 9 6 6 4 16 13 12 12 9 9 10 12
17 19 21 24 26 30 33 33 17 6 5 3 7 3 7 8 8 10 8 13 11 7 5 5 5 2 3 4 4 6 7 10 11 8 7 13 8 17 16 13 13 13 9 12 14
17 19 21 23 25 28 30 21 9 4 3 9 2 5 14 22 13 6 9 4 9 7 5 7 2 10 12 12 3 8 9 13 15 12 2 2 8 19 16 14 11 11 12 11 14
17 19 22 23 24 27 23 5 6 9 7 16 15 15 26 1 4 6 11 2 2 7 8 6 12 21 2 11 10 2 3 5 7 4 5 7 3 16 18 14 8 17 14 13 13
16 19 21 24 24 13 20 15 16 15 3 9 10 8 6 5 5 8 10 7 6 9 11 5 12 3 2 6 7 3 3 6 11 5 4 5 9 18 15 11 9 9 16 13 21
16 18 20 26 9 22 9 15 15 12 3 5 8 6 7 6 4 15 16 8 5 10 12 9 13 8 11 6 3 2 2 5 17 7 4 5 5 2 13 14 14 12 12 12 18
16 18 18 20 16 9 12 25 17 5 3 10 8 4 8 8 3 6 17 6 9 11 5 16 11 8 5 1 1 3 8 13 9 5 3 1 3 14 20 8 11 12 13 14 20
17 18 19 12 17 16 25 25 15 2 5 8 7 2 5 8 12 9 9 7 8 11 13 12 13 4 2 6 5 4 6 4 4 4 3 6 6 5 6 11 11 9 11 15 17
19 19 21 21 7 17 21 13 2 3 4 7 12 9 9 7 11 8 9 7 6 2 8 11 13 5 4 6 6 7 7 4 5 1 5 2 5 9 11 6 5 12 10 8 17
21 22 22 25 20 19 18 4 3 9 10 6 8 10 10 8 8 8 3 6 6 8 5 4 12 5 8 5 7 2 6 5 4 3 5 3 3 4 8 8 10 7 7 8 10
22 18 15 17 8 6 2 2 4 7 12 7 6 3 7 6 7 7 4 5 8 10 8 4 5 4 4 6 11 1 5 5 2 4 4 3 5 7 17 18 7 6 2 9 8
18 10 15 15 10 8 2 6 4 5 8 7 5 6 7 7 8 9 9 9 9 10 8 9 2 3 3 5 3 7 2 11 8 4 4 6 3 5 7 13 11 6 7 1 8
9 3 8 16 7 2 3 6 10 7 4 6 6 7 10 7 9 5 8 9 13 13 8 9 6 1 5 2 2 7 4 4 4 3 0 2 6 6 7 6 6 6 6 13 28
5 3 11 11 2 3 4 6 6 5 4 2 4 5 6 8 5 1 4 4 9 10 2 5 4 3 8 3 6 6 9 8 4 4 3 2 6 6 5 6 3 6 10 10 25
3 4 9 11 3 4 8 12 1 3 6 6 4 8 7 6 6 7 5 4 9 6 3 3 3 4 8 5 2 4 5 6 5 4 4 4 5 3 1 5 1 16 14 15 20
3 3 2 2 3 4 7 7 5 6 4 4 6 6 7 7 2 6 3 2 5 4 1 5 2 5 5 8 6 7 5 5 7 4 4 6 4 5 3 7 10 8 6 11 8
3 5 3 4 4 8 7 7 8 3 6 4 4 7 7 4 7 3 8 3 6 6 3 4 1 3 6 8 15 4 1 13 9 8 7 7 6 8 6 6 8 7 4 7 9
3 3 5 7 3 3 3 2 9 9 5 5 5 9 9 3 4 6 7 6 5 4 2 1 2 4 7 10 14 3 6 8 3 7 3 7 8 7 8 10 5 9 9 6 12
5 15 3 6 2 3 5 5 8 8 6 5 6 7 7 8 8 7 4 5 3 2 1 3 2 2 6 9 10 7 14 8 6 7 5 6 9 15 11 9 7 6 4 5 3
Wind_Direction
351 352 355 355 357 356 357 355 351 348 338 335 333 331 330 328 325 277 248 234 202 302 259 287 274 264 248 134 155 99 88 119 277 198 142 121 120 93 129 147 194 195 153 97 82
348 349 351 353 353 352 353 353 351 349 346 337 332 330 333 334 328 264 240 227 247 338 260 284 303 329 27 151 305 107 131 174 213 199 120 116 111 142 149 135 128 130 104 84 82
345 346 347 350 348 349 349 351 350 348 347 348 334 332 336 340 322 238 202 215 220 228 267 302 298 311 58 55 4 145 176 101 132 129 107 110 118 120 129 129 149 142 108 97 83
341 341 345 346 344 345 346 348 348 344 340 343 336 333 332 350 21 183 177 173 160 229 300 297 324 17 4 9 222 84 63 79 86 97 93 108 144 114 115 147 112 108 104 97 91
338 337 342 342 341 342 342 345 347 348 341 344 343 338 337 275 252 202 162 152 172 256 246 265 221 68 36 314 50 20 84 62 71 123 118 115 113 112 105 98 106 115 111 121 135
333 335 337 339 338 338 338 341 343 343 337 346 351 340 349 279 220 171 164 156 189 249 272 265 244 94 126 330 73 310 40 34 334 94 121 120 128 133 140 131 144 136 137 132 136
329 334 333 337 336 335 334 335 335 330 315 336 345 345 282 250 281 156 169 194 238 252 262 67 91 96 293 333 19 58 22 6 337 149 131 144 167 139 149 156 165 150 143 146 131
329 330 332 334 334 333 331 330 332 331 305 316 332 28 258 250 209 201 230 239 246 250 268 260 101 122 161 182 35 55 67 353 284 138 230 105 188 149 166 177 173 166 156 156 145
326 328 332 331 332 331 328 328 327 316 307 309 308 157 277 285 238 206 228 244 257 239 260 289 65 28 77 137 65 3 102 233 295 215 166 188 180 165 178 197 171 176 167 158 140
323 327 330 328 330 330 327 329 325 309 314 304 270 313 265 236 201 200 233 276 294 270 310 216 113 65 60 106 192 173 166 222 214 191 186 193 209 164 178 204 172 174 183 168 157
322 327 326 326 327 327 328 343 356 12 259 258 262 252 301 211 159 176 217 309 307 317 277 280 101 253 218 212 230 173 195 189 213 230 188 333 163 174 176 207 192 173 187 192 180
320 325 324 325 324 323 319 303 344 283 311 295 273 269 249 64 156 212 191 181 268 271 287 311 238 233 188 201 201 23 40 288 323 196 95 21 196 185 181 198 186 169 197 198 141
319 323 326 324 319 330 326 305 337 9 283 287 242 247 205 222 267 210 174 187 251 287 284 278 278 324 30 74 68 267 272 54 71 16 66 15 326 167 194 191 193 180 188 158 163
317 321 328 332 321 329 311 358 347 353 320 251 197 233 247 194 242 258 227 186 212 250 276 279 309 306 95 114 132 253 209 84 43 56 307 32 309 338 173 198 202 195 184 169 169
312 317 323 330 301 310 311 333 335 330 331 151 192 220 209 165 237 232 250 205 244 268 289 278 305 354 9 75 147 233 74 99 94 120 78 108 114 335 334 219 208 197 188 190 174
306 311 316 325 311 294 315 323 314 17 249 173 146 170 212 203 233 222 225 180 208 260 281 280 291 256 273 5 349 66 105 34 65 99 19 235 121 238 213 235 227 198 197 189 168
303 305 302 296 261 315 333 316 5 224 177 140 161 187 221 194 233 224 186 193 187 266 266 287 285 318 55 348 349 45 48 352 1 336 243 99 61 234 269 247 29 189 189 183 170
304 301 293 279 281 289 310 356 255 278 258 140 168 164 192 200 216 254 240 209 225 228 284 302 317 12 359 342 277 112 147 147 240 312 263 189 216 229 280 23 21 360 185 150 150
313 311 290 274 260 261 38 298 250 359 341 16 315 181 211 199 155 204 215 213 214 201 216 250 274 223 280 229 317 106 24 178 152 311 16 156 307 300 63 64 30 284 59 187 183
328 311 267 256 243 200 86 248 256 34 351 349 340 259 214 197 171 159 198 222 241 230 190 252 178 201 293 306 41 111 36 21 350 357 315 333 298 250 134 168 219 251 267 74 195
316 288 279 150 148 82 213 252 308 83 6 21 342 310 341 3 173 210 218 224 205 237 216 201 163 192 111 253 66 25 42 84 191 215 157 275 265 231 190 171 156 42 9 30 359
275 260 172 155 85 213 228 249 320 353 332 292 303 306 4 337 332 174 78 60 340 209 344 348 142 156 207 179 114 143 177 156 161 255 206 195 293 23 113 127 85 323 66 11 8
261 257 179 183 219 256 289 264 163 313 293 352 322 346 351 334 351 14 84 27 44 58 47 325 7 18 343 22 301 202 229 115 109 63 224 133 261 32 358 53 31 36 18 25 28
288 282 216 157 243 286 293 266 206 211 311 321 309 318 311 313 297 306 1 137 82 101 314 70 77 142 205 253 264 299 219 155 155 128 198 223 217 247 273 81 74 60 58 72 34
243 255 236 205 238 217 253 315 304 173 195 274 295 251 271 314 345 324 350 95 125 159 115 98 109 335 306 314 303 322 168 267 193 166 177 276 160 222 154 149 112 137 187 118 146
280 340 338 296 342 233 217 254 297 295 170 231 249 285 291 31 1 20 29 24 40 329 132 127 270 347 313 296 310 327 258 300 345 95 193 49 52 98 104 116 157 212 216 181 199
281 285 223 285 268 312 190 205 270 276 333 319 327 341 39 19 350 321 320 297 275 17 236 142 176 49 289 313 322 341 353 334 66 43 61 56 118 139 145 144 170 214 208 221 231